| time (UTC) | temp F | wind direction | speed knots | gust knots | rain 1hr in | rain 24hr in | rain mn in | humidity % | barometer mb |
| 20260901185747 | 69 | 202 | 3.5 | 8.7 | 0.00 | 0.01 | 0.01 | 60 | 1018.7 |
| 20260901175746 | 71 | 268 | 1.7 | 7.0 | 0.00 | 0.01 | 0.01 | 48 | 1018.6 |
| 20260901165745 | 72 | 225 | 2.6 | 9.6 | 0.00 | 0.01 | 0.01 | 48 | 1018.5 |
| 20260901155745 | 74 | 309 | 2.6 | 12.2 | 0.00 | 0.01 | 0.01 | 45 | 1018.7 |
| 20260901145745 | 73 | 198 | 2.6 | 10.4 | 0.00 | 0.01 | 0.01 | 47 | 1019.1 |
| 20260901135743 | 75 | 196 | 3.5 | 12.2 | 0.00 | 0.01 | 0.01 | 46 | 1019.2 |
| 20260901125743 | 74 | 241 | 3.5 | 10.4 | 0.00 | 0.01 | 0.01 | 48 | 1019.4 |
| 20260901115742 | 72 | 326 | 3.5 | 11.3 | 0.00 | 0.01 | 0.01 | 48 | 1019.9 |
| 20260901105743 | 69 | 211 | 2.6 | 10.4 | 0.00 | 0.01 | 0.01 | 52 | 1020.0 |
| 20260901095743 | 67 | 237 | 2.6 | 10.4 | 0.00 | 0.01 | 0.01 | 61 | 1020.4 |
| 20260901085740 | 63 | 186 | 1.7 | 7.0 | 0.00 | 0.01 | 0.01 | 73 | 1020.7 |
| 20260901075737 | 59 | 243 | 1.7 | 6.1 | 0.00 | 0.01 | 0.01 | 83 | 1020.3 |
| 20260901065735 | 57 | 284 | 1.7 | 5.2 | 0.00 | 0.01 | 0.01 | 86 | 1019.9 |
| 20260901055734 | 55 | 252 | 1.7 | 5.2 | 0.00 | 0.01 | 0.01 | 89 | 1019.5 |
| 20260901045734 | 55 | 202 | 1.7 | 5.2 | 0.01 | 0.01 | 0.01 | 87 | 1019.1 |
| 20260901035733 | 56 | 232 | 0.9 | 4.3 | 0.00 | 0.00 | 0.00 | 84 | 1018.9 |
| 20260901025735 | 58 | 247 | 0.9 | 5.2 | 0.00 | 0.00 | 0.00 | 80 | 1018.8 |
| 20260901015732 | 60 | 313 | 0.9 | 7.8 | 0.00 | 0.00 | 0.00 | 77 | 1018.7 |
| 20260901005729 | 60 | 288 | 1.7 | 7.0 | 0.00 | 0.00 | 0.00 | 75 | 1018.4 |
| 20260831235730 | 62 | 311 | 1.7 | 7.8 | 0.00 | 0.00 | 0.00 | 73 | 1018.2 |
| 20260831225728 | 62 | 318 | 1.7 | 8.7 | 0.00 | 0.00 | 0.00 | 71 | 1017.9 |
| 20260831215729 | 64 | 298 | 2.6 | 8.7 | 0.00 | 0.00 | 0.00 | 70 | 1017.7 |
| 20260831205728 | 65 | 301 | 1.7 | 9.6 | 0.00 | 0.00 | 0.00 | 69 | 1017.1 |
| 20260831195730 | 67 | 308 | 2.6 | 11.3 | 0.00 | 0.00 | 0.00 | 65 | 1016.3 |